FW0019 Weather Reports


time (UTC)temp
C
wind
direction
speed
KPH
gust
KPH
rain 1hr
cm
rain 24hr
cm
rain mn
cm
humidity
%
barometer
mb
20260506214535 16 129 11.3 24.1 0.00 0.03 0.03 62 879.9
20260506213042 17 115 12.9 20.9 0.00 0.03 0.03 60 880.0
20260506211542 16 131 11.3 24.1 0.00 0.03 0.03 63 880.2
20260506210043 16 131 9.7 25.7 0.00 0.03 0.03 63 880.1
20260506204534 16 103 12.9 20.9 0.00 0.03 0.03 62 880.2
20260506203034 16 132 12.9 19.3 0.00 0.03 0.03 64 880.2
20260506201537 16 107 12.9 19.3 0.00 0.03 0.03 63 880.3
20260506200033 16 76 11.3 17.7 0.00 0.05 0.03 62 880.4
20260506194531 16 132 9.7 20.9 0.00 0.05 0.03 65 880.4
20260506193044 16 114 9.7 17.7 0.00 0.05 0.03 65 880.5
20260506191530 16 119 12.9 19.3 0.00 0.05 0.03 66 880.5
20260506190030 16 153 11.3 17.7 0.00 0.20 0.03 63 880.5
20260506184531 16 107 3.2 19.3 0.00 0.20 0.03 52 880.6
20260506183028 16 136 8.0 14.5 0.00 0.20 0.03 60 880.6
20260506181536 15 243 4.8 16.1 0.00 0.20 0.03 49 880.7
20260506180021 15 167 6.4 16.1 0.00 0.41 0.03 62 880.7
20260506174519 14 166 8.0 16.1 0.00 0.41 0.03 61 880.7
20260506173019 13 137 9.7 16.1 0.00 0.41 0.03 66 880.6
20260506171517 13 141 8.0 16.1 0.00 0.41 0.03 67 880.6
20260506170015 13 165 8.0 14.5 0.00 0.53 0.03 68 880.4
20260506164513 13 144 9.7 16.1 0.00 0.53 0.03 61 880.3
20260506163015 13 155 6.4 12.9 0.00 0.53 0.03 62 880.3
20260506161506 12 105 6.4 11.3 0.00 0.53 0.03 61 880.1
20260506160003 12 157 6.4 11.3 0.00 0.64 0.03 67 880.0
20260506154613 11 136 6.4 11.3 0.00 0.64 0.03 70 880.0
20260506153056 11 147 6.4 11.3 0.00 0.64 0.03 71 879.9
20260506151555 11 103 8.0 11.3 0.03 0.64 0.03 69 879.9
20260506150054 10 132 6.4 12.9 0.03 0.81 0.03 70 879.9
20260506144554 10 108 6.4 16.1 0.03 0.81 0.03 71 879.7
20260506143045 8 140 4.8 11.3 0.03 0.81 0.03 81 879.6
20260506141541 7 296 0.0 6.4 0.00 0.79 0.00 86 879.3
20260506140038 6 269 1.6 6.4 0.00 0.99 0.00 89 879.5
20260506134533 5 78 0.0 3.2 0.00 0.99 0.00 90 879.3
20260506133038 5 153 3.2 11.3 0.00 0.99 0.00 90 879.1
20260506131534 5 163 3.2 12.9 0.00 0.99 0.00 89 879.0
20260506130029 5 86 8.0 17.7 0.00 1.27 0.00 89 878.7
20260506124527 5 80 9.7 16.1 0.00 1.27 0.00 88 878.6
20260506123026 5 94 9.7 16.1 0.00 1.27 0.00 90 878.5
20260506121525 5 82 8.0 16.1 0.00 1.27 0.00 89 878.4
20260506120025 5 84 9.7 17.7 0.00 1.35 0.00 90 878.4
20260506114527 5 90 6.4 14.5 0.00 1.35 0.00 90 878.4
20260506113023 5 130 9.7 22.5 0.00 1.35 0.00 91 878.3
20260506111521 5 88 8.0 16.1 0.00 1.35 0.00 91 878.2
20260506110020 5 127 6.4 14.5 0.00 1.45 0.00 92 878.3
20260506104540 4 109 11.3 19.3 0.00 1.45 0.00 95 878.2
20260506103017 4 112 8.0 17.7 0.00 1.45 0.00 95 878.3
20260506101517 4 72 8.0 17.7 0.00 1.45 0.00 95 878.3
20260506100018 4 111 11.3 19.3 0.00 1.63 0.00 95 878.2
20260506094515 4 116 11.3 20.9 0.00 1.63 0.00 95 878.2
20260506093014 4 87 9.7 17.7 0.00 1.63 0.00 96 878.2
20260506091513 3 124 8.0 19.3 0.00 1.63 0.00 95 878.2
20260506090011 3 103 9.7 16.1 0.00 1.68 0.00 96 878.2
20260506084509 3 119 8.0 14.5 0.00 1.68 0.00 96 878.4
20260506083018 3 138 11.3 17.7 0.00 1.68 0.00 96 878.5
20260506081509 3 125 11.3 19.3 0.00 1.68 0.00 96 878.6
20260506073059 4 125 14.5 25.7 0.00 1.68 0.00 97 878.7
20260506071620 4 121 12.9 24.1 0.00 1.68 0.00 97 878.8
20260506061552 3 159 11.3 20.9 0.00 1.68 1.68 96 878.4
20260506044556 4 109 11.3 22.5 0.00 1.68 1.68 97 878.2
20260506043053 4 112 11.3 22.5 0.00 1.68 1.68 96 878.0
20260506041547 4 109 9.7 20.9 0.00 1.68 1.68 96 878.0
20260506040049 4 116 6.4 17.7 0.00 1.70 1.68 96 877.9
20260506034541 4 123 9.7 20.9 0.00 1.70 1.68 96 877.4
20260506033039 5 128 12.9 27.4 0.00 1.70 1.68 96 877.3
20260506031539 5 149 14.5 25.7 0.00 1.70 1.68 95 877.1
20260506030037 5 79 12.9 27.4 0.00 1.70 1.68 95 876.9
20260506024543 5 105 11.3 25.7 0.00 1.70 1.68 94 876.7
20260506023035 5 124 12.9 27.4 0.00 1.70 1.68 94 876.7
20260506021549 5 138 12.9 27.4 0.00 1.70 1.68 91 876.5
20260506020034 5 101 14.5 24.1 0.00 1.70 1.68 90 876.6
20260506014534 5 134 12.9 25.7 0.00 1.70 1.68 88 876.4
20260506013033 6 102 12.9 25.7 0.00 1.70 1.68 88 876.3
20260506011533 6 110 12.9 27.4 0.00 1.70 1.68 84 876.4
20260506010044 6 165 14.5 33.8 0.00 1.70 1.68 84 876.1
20260506004530 6 100 12.9 29.0 0.00 1.70 1.68 85 876.0
20260506003028 6 116 19.3 30.6 0.00 1.70 1.68 86 875.8
20260506001525 6 87 16.1 33.8 0.00 1.70 1.68 85 875.7
20260506000024 6 139 19.3 38.6 0.00 1.70 1.68 83 875.7
20260505234523 6 146 22.5 33.8 0.00 1.70 1.68 83 875.5
20260505233022 7 105 25.7 41.8 0.00 1.70 1.68 78 875.5
20260505231527 6 111 20.9 37.0 0.00 1.70 1.68 83 875.7
20260505230023 7 111 19.3 37.0 0.00 1.70 1.68 84 875.7
20260505224527 7 145 24.1 41.8 0.00 1.70 1.68 83 875.6
20260505223020 7 152 19.3 40.2 0.00 1.70 1.68 85 875.8
20260505221520 8 102 19.3 35.4 0.00 1.70 1.68 82 876.0
20260505220017 7 148 22.5 41.8 0.00 1.70 1.68 85 876.1